Change the Weather History Date:

Sunday, May 19, 2013

  Actual Average (KBPI) Record (KBPI)
Temperature  
Mean Temperature 40 °F 47 °F  
Max Temperature 48 °F 63 °F 80 °F (2009)
Min Temperature 33 °F 31 °F 17 °F (2003)
Degree Days  
Heating Degree Days 24 18  
Month to date heating degree days 399  
Since 1 July heating degree days 9930  
Cooling Degree Days 0 0  
Month to date cooling degree days 0  
Year to date cooling degree days 0  
Moisture  
Dew Point 35 °F    
Average Humidity 79    
Maximum Humidity 93    
Minimum Humidity 58    
Precipitation  
Precipitation 0.00 in 0.03 in 0.04 in (2011)
Month to date precipitation 0.50  
Year to date precipitation 2.13  
Sea Level Pressure  
Sea Level Pressure 30.02 in    
Wind  
Wind Speed 15 mph (WNW)    
Max Wind Speed 24 mph    
Max Gust Speed 30 mph    
Visibility 10 miles    
Events Rain    
T = Trace of Precipitation, MM = Missing Value Source: NWS Daily Summary

Daily Weather History Graph

Daily Weather History Graph

Search for Another Location

Airport or City:

Trip Planner

Search our weather history database for the weather conditions in past years. The results will help you decide how hot, cold, wet, or windy it might be!

Date:

Astronomy

May. 19, 2013 Rise Set
Actual Time 5:52 AM MDT 8:39 PM MDT
Civil Twilight 5:19 AM MDT 9:12 PM MDT
Nautical Twilight 4:37 AM MDT 9:54 PM MDT
Astronomical Twilight 3:50 AM MDT 10:42 PM MDT
Moon 2:39 PM MDT (5/19) 2:26 AM MDT (5/19)
Length of Visible Light 15h 53m
Length of Day
14h 47m
Waxing Gibbous, 66% of the Moon is Illuminated
May 19
Waxing Gibbous
May 24
Full
May 31
Last Quarter
Jun 8
New
Jun 16
First Quarter

Hourly Weather History & Observations

Time (MDT) Temp. Windchill Dew Point Humidity Pressure Visibility Wind Dir Wind Speed Gust Speed Precip Events Conditions
12:15 AM 37.4 °F 29.3 °F 33.8 °F 87% 30.03 in 10.0 mi WNW 12.7 mph - N/A   Mostly Cloudy
12:35 AM 37.4 °F 28.9 °F 32.0 °F 81% 30.03 in 10.0 mi WNW 13.8 mph - N/A   Overcast
12:55 AM 37.4 °F 28.9 °F 32.0 °F 81% 30.03 in 10.0 mi WNW 13.8 mph 18.4 mph N/A   Mostly Cloudy
1:15 AM 37.4 °F 28.9 °F 32.0 °F 81% 30.03 in 10.0 mi WNW 13.8 mph - N/A   Scattered Clouds
1:35 AM 37.4 °F 28.9 °F 32.0 °F 81% 30.03 in 10.0 mi WNW 13.8 mph - N/A   Clear
1:55 AM 35.6 °F 28.0 °F 32.0 °F 87% 30.03 in 10.0 mi West 10.4 mph - N/A   Clear
2:15 AM 35.6 °F 27.5 °F 32.0 °F 87% 30.02 in 10.0 mi West 11.5 mph - N/A   Clear
2:35 AM 35.6 °F 28.6 °F 32.0 °F 87% 30.02 in 10.0 mi West 9.2 mph - N/A   Clear
2:55 AM 33.8 °F 25.3 °F 32.0 °F 93% 30.01 in 10.0 mi West 11.5 mph - N/A   Scattered Clouds
3:15 AM 33.8 °F 25.3 °F 32.0 °F 93% 30.01 in 10.0 mi West 11.5 mph - N/A   Mostly Cloudy
3:35 AM 33.8 °F 26.4 °F 32.0 °F 93% 30.01 in 10.0 mi West 9.2 mph - N/A   Mostly Cloudy
3:55 AM 33.8 °F 25.3 °F 32.0 °F 93% 30.01 in 10.0 mi West 11.5 mph - N/A   Mostly Cloudy
4:15 AM 33.8 °F 26.4 °F 32.0 °F 93% 30.00 in 10.0 mi WNW 9.2 mph - N/A   Scattered Clouds
4:35 AM 35.6 °F 28.0 °F 32.0 °F 87% 30.00 in 10.0 mi WNW 10.4 mph - N/A   Scattered Clouds
4:55 AM 35.6 °F 28.0 °F 32.0 °F 87% 30.00 in 10.0 mi WNW 10.4 mph - N/A   Scattered Clouds
5:15 AM 35.6 °F 28.6 °F 32.0 °F 87% 30.00 in 10.0 mi West 9.2 mph - N/A   Scattered Clouds
5:35 AM 35.6 °F 27.1 °F 32.0 °F 87% 30.00 in 10.0 mi West 12.7 mph 18.4 mph N/A   Scattered Clouds
6:15 AM 35.6 °F 27.1 °F 32.0 °F 87% 30.00 in 10.0 mi West 12.7 mph - N/A   Scattered Clouds
6:35 AM 35.6 °F 27.5 °F 32.0 °F 87% 30.01 in 10.0 mi West 11.5 mph - N/A   Clear
6:55 AM 37.4 °F 30.8 °F 33.8 °F 87% 30.01 in 10.0 mi West 9.2 mph - N/A   Clear
7:15 AM 37.4 °F 28.2 °F 33.8 °F 87% 30.01 in 10.0 mi West 16.1 mph 20.7 mph N/A   Clear
7:35 AM 39.2 °F 30.2 °F 33.8 °F 81% 30.01 in 10.0 mi WNW 17.3 mph 21.9 mph N/A   Scattered Clouds
7:55 AM 41.0 °F 32.8 °F 33.8 °F 76% 30.01 in 10.0 mi WNW 16.1 mph 24.2 mph N/A   Scattered Clouds
8:15 AM 41.0 °F 31.4 °F 33.8 °F 76% 30.00 in 10.0 mi WNW 21.9 mph 26.5 mph N/A   Clear
8:55 AM 42.8 °F 34.3 °F 33.8 °F 70% 30.00 in 10.0 mi WNW 19.6 mph 26.5 mph N/A   Clear
9:15 AM 42.8 °F 34.3 °F 33.8 °F 70% 30.00 in 10.0 mi WNW 19.6 mph 26.5 mph N/A   Clear
9:35 AM 42.8 °F 33.3 °F 33.8 °F 70% 30.00 in 10.0 mi WNW 24.2 mph - N/A   Clear
9:55 AM 44.6 °F 36.6 °F 33.8 °F 66% 30.00 in 10.0 mi WNW 19.6 mph 26.5 mph N/A   Mostly Cloudy
10:15 AM 44.6 °F 36.9 °F 33.8 °F 66% 30.00 in 10.0 mi WNW 18.4 mph 24.2 mph N/A   Mostly Cloudy
10:35 AM 44.6 °F 36.4 °F 33.8 °F 66% 30.00 in 10.0 mi NW 20.7 mph 24.2 mph N/A   Scattered Clouds
10:55 AM 46.4 °F 39.0 °F 33.8 °F 62% 30.01 in 10.0 mi WNW 19.6 mph 26.5 mph N/A   Scattered Clouds
11:15 AM 46.4 °F 39.2 °F 35.6 °F 66% 30.01 in 10.0 mi WNW 18.4 mph 25.3 mph N/A   Mostly Cloudy
11:35 AM 46.4 °F 38.7 °F 33.8 °F 62% 30.01 in 10.0 mi NW 20.7 mph 24.2 mph N/A   Overcast
11:55 AM 48.2 °F - 33.8 °F 58% 30.01 in 10.0 mi NW 18.4 mph 27.6 mph N/A   Mostly Cloudy
12:15 PM 46.4 °F 38.5 °F 35.6 °F 66% 30.02 in 10.0 mi NNW 21.9 mph 27.6 mph N/A   Overcast
12:35 PM 42.8 °F 33.5 °F 37.4 °F 81% 30.03 in 7.0 mi NNW 23.0 mph 28.8 mph N/A   Drizzle
1:15 PM 41.0 °F 33.5 °F 37.4 °F 87% 30.03 in 5.0 mi WNW 13.8 mph 20.7 mph N/A Rain Light Rain
1:35 PM 41.0 °F 33.5 °F 39.2 °F 93% 30.03 in 10.0 mi WNW 13.8 mph - N/A   Light Drizzle
2:15 PM 42.8 °F 34.8 °F 39.2 °F 87% 30.03 in 10.0 mi NW 17.3 mph - N/A   Light Drizzle
2:35 PM 44.6 °F 37.2 °F 37.4 °F 76% 30.03 in 10.0 mi NNW 17.3 mph 24.2 mph N/A   Light Drizzle
2:55 PM 44.6 °F 36.9 °F 39.2 °F 81% 30.03 in 10.0 mi NW 18.4 mph 21.9 mph N/A Rain Rain
3:15 PM 42.8 °F 35.1 °F 41.0 °F 93% 30.03 in 10.0 mi NNW 16.1 mph - N/A Rain Light Rain
3:35 PM 42.8 °F 35.4 °F 39.2 °F 87% 30.03 in 10.0 mi NW 15.0 mph 21.9 mph N/A Rain Rain
3:55 PM 42.8 °F 35.1 °F 39.2 °F 87% 30.03 in 10.0 mi NW 16.1 mph - N/A Rain Rain
4:15 PM 44.6 °F 37.2 °F 41.0 °F 87% 30.03 in 10.0 mi NW 17.3 mph 23.0 mph N/A   Light Drizzle
4:35 PM 46.4 °F 38.7 °F 37.4 °F 71% 30.03 in 10.0 mi WNW 20.7 mph 25.3 mph N/A   Mostly Cloudy
4:55 PM 46.4 °F 39.2 °F 37.4 °F 71% 30.03 in 10.0 mi NW 18.4 mph 27.6 mph N/A   Overcast
5:15 PM 46.4 °F 38.5 °F 35.6 °F 66% 30.02 in 10.0 mi WNW 21.9 mph - N/A   Overcast
5:35 PM 44.6 °F 35.9 °F 33.8 °F 66% 30.03 in 10.0 mi NW 23.0 mph 29.9 mph N/A   Overcast
5:55 PM 44.6 °F 35.9 °F 33.8 °F 66% 30.02 in 10.0 mi WNW 23.0 mph - N/A   Overcast
6:15 PM 44.6 °F 36.6 °F 35.6 °F 71% 30.02 in 10.0 mi WNW 19.6 mph 25.3 mph N/A Rain Light Rain
6:35 PM 44.6 °F 37.2 °F 35.6 °F 71% 30.02 in 10.0 mi WNW 17.3 mph 26.5 mph N/A Rain Light Rain
6:55 PM 44.6 °F 37.2 °F 37.4 °F 76% 30.02 in 10.0 mi WNW 17.3 mph 24.2 mph N/A Rain Light Rain
7:15 PM 42.8 °F 34.5 °F 35.6 °F 76% 30.02 in 10.0 mi WNW 18.4 mph 23.0 mph N/A Rain Light Rain
7:35 PM 42.8 °F 34.8 °F 35.6 °F 76% 30.03 in 10.0 mi WNW 17.3 mph 23.0 mph N/A   Overcast
7:55 PM 42.8 °F 33.5 °F 35.6 °F 76% 30.03 in 10.0 mi WNW 23.0 mph 27.6 mph N/A   Overcast
8:15 PM 42.8 °F 34.0 °F 35.6 °F 76% 30.03 in 10.0 mi NW 20.7 mph 26.5 mph N/A   Overcast
8:35 PM 42.8 °F 34.8 °F 35.6 °F 76% 30.03 in 10.0 mi WNW 17.3 mph 23.0 mph N/A   Overcast
8:55 PM 42.8 °F 34.3 °F 35.6 °F 76% 30.03 in 10.0 mi WNW 19.6 mph 24.2 mph N/A   Overcast
9:15 PM 42.8 °F 35.1 °F 35.6 °F 76% 30.03 in 10.0 mi WNW 16.1 mph - N/A   Overcast
9:35 PM 42.8 °F 34.8 °F 35.6 °F 76% 30.04 in 10.0 mi WNW 17.3 mph 21.9 mph N/A   Overcast
10:15 PM 41.0 °F 32.8 °F 35.6 °F 81% 30.05 in 10.0 mi WNW 16.1 mph 24.2 mph N/A   Overcast
10:35 PM 41.0 °F 33.1 °F 35.6 °F 81% 30.05 in 10.0 mi WNW 15.0 mph 19.6 mph N/A   Overcast
10:55 PM 41.0 °F 33.5 °F 35.6 °F 81% 30.05 in 10.0 mi WNW 13.8 mph - N/A   Mostly Cloudy
11:15 PM 41.0 °F 33.9 °F 35.6 °F 81% 30.05 in 10.0 mi WNW 12.7 mph - N/A   Mostly Cloudy
11:35 PM 41.0 °F 34.3 °F 35.6 °F 81% 30.05 in 10.0 mi WNW 11.5 mph - N/A   Overcast
11:55 PM 41.0 °F 33.5 °F 35.6 °F 81% 30.05 in 10.0 mi WNW 13.8 mph - N/A   Overcast